Location: Oberstdorf
(47.4188°N, 10.2969°E)
Time: 19:02:04
(UTC+01:00)

ISS - Pass Details

Date: 04 January 2018
Orbit: 402 x 407 km, 51.6° (Epoch: 17 January)

Event Time Altitude Azimuth Distance (km) Brightness Sun altitude
Exits shadow 06:54:10 19° 299° (WNW) 1,034 -2.4 -11.6°
Maximum altitude 06:56:04 37° 358° (N) 647 -3.0 -11.3°
Drops below altitude 10° 06:59:10 10° 68° (ENE) 1,471 -0.3 -10.8°
Sets 07:01:21 0° 77° (ENE) 2,333 1.0 -10.5°
